Weather History for Marshalltown, IA

Change the Weather History Date:

Thursday, August 29, 2013

  Actual Average Record
Temperature  
Mean Temperature 83 °F 68 °F  
Max Temperature 94 °F 79 °F 94 °F (2012)
Min Temperature 71 °F 58 °F 51 °F (2008)
Degree Days  
Heating Degree Days 0 1  
Month to date heating degree days 6 9  
Since 1 June heating degree days 58 43  
Since 1 July heating degree days 21 15  
Cooling Degree Days 18 4  
Month to date cooling degree days 216 181  
Year to date cooling degree days 682 647  
Since 1 June cooling degree days 621 597  
Growing Degree Days 24 (Base 50)    
Moisture  
Dew Point 71 °F    
Average Humidity 70    
Maximum Humidity 100    
Minimum Humidity 39    
Precipitation  
Precipitation 0.00 in 0.15 in 0.55 in (2014)
Month to date precipitation 0.10 3.97  
Sea Level Pressure  
Sea Level Pressure 29.99 in    
Wind  
Wind Speed 6 mph (SSE)    
Max Wind Speed 6 mph    
Max Gust Speed 7 mph    
Visibility 5 miles    
Events Fog    
T = Trace of Precipitation, MM = Missing Value Source: NWS Daily Summary

Daily Weather History Graph

Daily Weather History Graph

Search for Another Location

Airport:

Trip Planner

Search our weather history database for the weather conditions in past years. The results will help you decide how hot, cold, wet, or windy it might be!

Date:

Astronomy

Aug. 29, 2013 Rise Set
Actual Time 6:34 AM CDT 7:49 PM CDT
Civil Twilight 6:05 AM CDT 8:18 PM CDT
Nautical Twilight 5:30 AM CDT 8:53 PM CDT
Astronomical Twilight 4:53 AM CDT 9:29 PM CDT
Moon 12:23 AM CDT (8/29) 3:22 PM CDT (8/29)
Length of Visible Light 14h 13m
Length of Day
13h 15m
Last Quarter, 38% of the Moon is Illuminated
Aug 29
Last Quarter
Sep 5
New
Sep 12
First Quarter
Sep 19
Full
Sep 26
Last Quarter

Hourly Weather History & Observations

Time (CDT) Temp. Heat Index Dew Point Humidity Pressure Visibility Wind Dir Wind Speed Gust Speed Precip Events Conditions
12:53 AM 75.9 °F - 75.0 °F 97% 29.99 in 4.0 mi ESE 3.5 mph - N/A   Clear
1:45 AM 75.2 °F - 73.4 °F 94% 30.02 in 2.5 mi SE 5.8 mph - N/A   Clear
1:53 AM 75.0 °F - 73.9 °F 96% 29.99 in 2.5 mi SE 4.6 mph - N/A   Clear
2:05 AM 75.2 °F - 75.2 °F 100% 30.01 in 3.0 mi ESE 5.8 mph - N/A   Clear
2:13 AM 75.2 °F - 73.4 °F 94% 30.01 in 2.0 mi SE 5.8 mph - N/A   Clear
2:25 AM 75.2 °F - 75.2 °F 100% 30.01 in 4.0 mi SE 5.8 mph - N/A   Clear
2:35 AM 75.2 °F - 75.2 °F 100% 30.02 in 4.0 mi SE 5.8 mph - N/A   Scattered Clouds
2:53 AM 75.9 °F - 75.0 °F 97% 29.99 in 3.0 mi ESE 4.6 mph - N/A   Mist
3:02 AM 75.2 °F - 75.2 °F 100% 30.02 in 1.8 mi SE 4.6 mph - N/A   Mist
3:15 AM 75.2 °F - 75.2 °F 100% 30.02 in 3.0 mi SSE 4.6 mph - N/A   Mist
3:53 AM 73.9 °F - 73.9 °F 100% 30.00 in 3.0 mi SSE 4.6 mph - N/A   Mist
4:11 AM 73.4 °F - 73.4 °F 100% 30.02 in 2.0 mi SSE 3.5 mph - N/A   Mist
4:19 AM 55.4 °F - 55.4 °F 100% 30.02 in 1.5 mi ESE 3.5 mph - N/A   Mist
4:27 AM 71.6 °F - 71.6 °F 100% 30.02 in 0.2 mi ESE 3.5 mph - N/A Fog Fog
4:53 AM 72.0 °F - 72.0 °F 100% 30.00 in 0.5 mi SSE 3.5 mph - N/A Fog Fog
5:14 AM 71.6 °F - 71.6 °F 100% 30.02 in 1.0 mi Calm Calm - N/A   Mist
5:23 AM 71.6 °F - 71.6 °F 100% 30.02 in 0.2 mi Calm Calm - N/A Fog Fog
5:53 AM 71.1 °F - 71.1 °F 100% 30.00 in 0.2 mi ESE 3.5 mph - N/A Fog Fog
6:53 AM 72.0 °F - 72.0 °F 100% 30.01 in 0.2 mi ESE 4.6 mph - N/A Fog Fog
7:53 AM 73.0 °F - 73.0 °F 100% 30.02 in 0.2 mi SE 4.6 mph - N/A Fog Fog
8:14 AM 73.4 °F - 73.4 °F 100% 30.05 in 2.0 mi SSE 3.5 mph - N/A   Mist
8:53 AM 73.9 °F - 73.0 °F 97% 30.02 in 6.0 mi South 4.6 mph - N/A   Mist
9:53 AM 82.9 °F 89.4 °F 73.9 °F 74% 30.02 in 10.0 mi South 3.5 mph - N/A   Unknown
10:53 AM 86.0 °F 90.7 °F 70.0 °F 59% 30.04 in 10.0 mi SW 3.5 mph - N/A   Unknown
11:53 AM 89.1 °F 94.1 °F 70.0 °F 53% 30.03 in 10.0 mi SW 6.9 mph - N/A   Clear
12:53 PM 91.0 °F 95.6 °F 69.1 °F 48% 30.01 in 10.0 mi SSW 8.1 mph - N/A   Partly Cloudy
1:53 PM 93.0 °F 97.4 °F 68.0 °F 44% 30.00 in 10.0 mi SSW 8.1 mph - N/A   Clear
2:53 PM 93.0 °F 95.0 °F 64.9 °F 39% 29.98 in 10.0 mi SSW 9.2 mph - N/A   Clear
3:53 PM 93.0 °F 96.4 °F 66.9 °F 42% 29.96 in 10.0 mi South 10.4 mph - N/A   Clear
4:53 PM 91.9 °F 94.5 °F 66.0 °F 42% 29.95 in 10.0 mi SSW 9.2 mph - N/A   Partly Cloudy
5:53 PM 91.0 °F 94.3 °F 66.9 °F 45% 29.94 in 10.0 mi South 8.1 mph - N/A   Clear
6:53 PM 89.1 °F 92.9 °F 68.0 °F 50% 29.93 in 10.0 mi South 8.1 mph - N/A   Clear
7:53 PM 84.0 °F 87.0 °F 68.0 °F 58% 29.93 in 10.0 mi South 4.6 mph - N/A   Clear
8:53 PM 81.0 °F 84.1 °F 69.1 °F 67% 29.93 in 10.0 mi SSE 5.8 mph - N/A   Clear
9:53 PM 81.0 °F 84.1 °F 69.1 °F 67% 29.93 in 10.0 mi SSE 6.9 mph - N/A   Partly Cloudy
10:53 PM 78.1 °F - 70.0 °F 76% 29.90 in 10.0 mi SSE 4.6 mph - N/A   Scattered Clouds
11:53 PM 75.0 °F - 70.0 °F 84% 29.90 in 10.0 mi ESE 3.5 mph - N/A   Partly Cloudy